PROFILE

 METAR AND TAF INFORMATION
ADDS - METARS form results

(1457 UTC 22 January 2019)
http://aviationweather.gov/metar/data/
 
LFMP 221430Z AUTO 17004KT 9999 BKN100 BKN220 BKN240 10/M03 Q1007 TEMPO BKN014
LFMP 221400Z AUTO 12006KT 100V170 CAVOK 11/M03 Q1007 TEMPO BKN014
TAF LFMP 221400Z 2215/2315 VRB03KT 9999 BKN040 PROB30 TEMPO 2215/2218 -RA BKN014 TEMPO 2220/2303 31015G25KT BECMG 2311/2313 32020G30KT TEMPO 2313/2315 32025G40KT SHRA 

 AIRPORT MAP

 RUNWAY INFORMATION
Runway 13 Runway length 4150 ft Runway width 66 ft
Runway elevation 143 ft Runway displaced threshold 404 ft Runway heading 127
Runway 31 Runway length 4150 ft Runway width 66 ft
Runway elevation 131 ft Runway displaced threshold 1158 ft Runway heading 307
Runway 15 Runway length 8202 ft Runway width 148 ft
Runway elevation 130 ft Runway displaced threshold 0 ft Runway heading 148
Runway 33 Runway length 8202 ft Runway width 148 ft
Runway elevation 135 ft Runway displaced threshold 557 ft Runway heading 328

 AIRPORT FREQUENCIES
Type APP Name PERPIGNAN Frequency 120.75 MHZ
Type ATIS Name ATIS Frequency 127.875 MHZ
Type TWR Name PERPIGNAN Frequency 121.9 MHZ

 AIRPORT NEAR NAVIGATION AIDS
Type VOR-DME Name Perpignan Frequency 116250 KHZ